TimeCDT,TemperatureF,Dew PointF,Humidity,Sea Level PressureIn,VisibilityMPH,Wind Direction,Wind SpeedMPH,Gust SpeedMPH,PrecipitationIn,Events,Conditions,WindDirDegrees,DateUTC
12:15 AM,79.5,63.9,59,29.80,10.0,South,15.0,21.9,N/A,,Clear,180,2013-05-19 05:15:00
12:35 AM,78.3,63.7,61,29.80,10.0,South,15.0,21.9,N/A,,Clear,180,2013-05-19 05:35:00
12:55 AM,77.9,63.9,62,29.80,10.0,South,16.1,21.9,N/A,,Clear,180,2013-05-19 05:55:00
1:15 AM,77.2,64.4,65,29.79,10.0,South,16.1,-,N/A,,Clear,180,2013-05-19 06:15:00
1:35 AM,76.6,64.4,66,29.79,10.0,South,11.5,21.9,N/A,,Clear,180,2013-05-19 06:35:00
1:55 AM,76.1,64.6,67,29.79,10.0,South,13.8,19.6,N/A,,Clear,180,2013-05-19 06:55:00
2:15 AM,75.7,64.4,68,29.79,10.0,South,9.2,17.3,N/A,,Clear,190,2013-05-19 07:15:00
2:35 AM,75.6,64.4,68,29.80,10.0,SSW,9.2,-,N/A,,Clear,200,2013-05-19 07:35:00
2:55 AM,75.2,64.4,69,29.80,10.0,South,8.1,-,N/A,,Clear,190,2013-05-19 07:55:00
3:15 AM,74.3,63.9,70,29.81,10.0,South,5.8,-,N/A,,Clear,180,2013-05-19 08:15:00
3:35 AM,73.4,63.7,71,29.80,10.0,South,5.8,-,N/A,,Clear,180,2013-05-19 08:35:00
3:55 AM,72.5,63.3,73,29.80,10.0,South,4.6,-,N/A,,Clear,180,2013-05-19 08:55:00
4:15 AM,72.5,63.0,72,29.80,10.0,South,6.9,-,N/A,,Clear,170,2013-05-19 09:15:00
4:35 AM,71.8,62.8,73,29.80,10.0,South,5.8,-,N/A,,Clear,180,2013-05-19 09:35:00
4:55 AM,72.0,62.6,72,29.80,10.0,South,4.6,-,N/A,,Clear,180,2013-05-19 09:55:00
5:15 AM,72.1,62.1,70,29.80,10.0,SSW,3.5,-,N/A,,Clear,210,2013-05-19 10:15:00
5:35 AM,72.0,61.9,70,29.80,10.0,SSW,5.8,-,N/A,,Clear,200,2013-05-19 10:35:00
5:55 AM,70.7,61.9,74,29.80,10.0,South,4.6,-,N/A,,Clear,180,2013-05-19 10:55:00
6:15 AM,70.2,61.9,75,29.80,10.0,South,4.6,-,N/A,,Clear,180,2013-05-19 11:15:00
6:35 AM,70.5,61.9,74,29.81,10.0,Calm,Calm,-,N/A,,Clear,0,2013-05-19 11:35:00
6:55 AM,70.7,62.1,74,29.82,10.0,SW,3.5,-,N/A,,Clear,220,2013-05-19 11:55:00
7:15 AM,70.7,62.6,75,29.82,10.0,South,8.1,-,N/A,,Clear,180,2013-05-19 12:15:00
7:35 AM,72.1,62.8,72,29.83,10.0,South,9.2,-,N/A,,Clear,190,2013-05-19 12:35:00
7:55 AM,73.6,63.1,70,29.82,10.0,South,12.7,18.4,N/A,,Clear,180,2013-05-19 12:55:00
8:15 AM,75.2,63.3,66,29.81,10.0,South,15.0,19.6,N/A,,Clear,170,2013-05-19 13:15:00
8:35 AM,75.7,63.0,64,29.80,10.0,South,17.3,24.2,N/A,,Clear,170,2013-05-19 13:35:00
8:55 AM,76.8,63.3,63,29.80,10.0,South,12.7,24.2,N/A,,Clear,190,2013-05-19 13:55:00
9:15 AM,77.9,63.5,61,29.80,10.0,South,16.1,24.2,N/A,,Clear,190,2013-05-19 14:15:00
9:35 AM,78.6,63.5,60,29.82,10.0,South,16.1,23.0,N/A,,Clear,190,2013-05-19 14:35:00
9:55 AM,79.3,63.7,59,29.82,10.0,SSW,15.0,24.2,N/A,,Clear,200,2013-05-19 14:55:00
10:15 AM,79.9,63.7,58,29.82,10.0,SSW,19.6,24.2,N/A,,Clear,200,2013-05-19 15:15:00
10:35 AM,81.0,64.2,57,29.82,10.0,SSW,19.6,26.5,N/A,,Clear,200,2013-05-19 15:35:00
10:55 AM,82.2,64.4,55,29.81,10.0,SSW,17.3,26.5,N/A,,Clear,200,2013-05-19 15:55:00
11:15 AM,83.5,64.4,52,29.81,10.0,SSW,16.1,25.3,N/A,,Clear,200,2013-05-19 16:15:00
11:35 AM,84.9,64.4,50,29.80,10.0,South,13.8,24.2,N/A,,Clear,190,2013-05-19 16:35:00
11:55 AM,86.2,64.4,48,29.80,10.0,SSW,10.4,25.3,N/A,,Clear,200,2013-05-19 16:55:00
12:15 PM,88.3,63.7,44,29.80,10.0,SW,15.0,19.6,N/A,,Clear,220,2013-05-19 17:15:00
12:35 PM,89.2,61.5,39,29.80,10.0,SW,15.0,21.9,N/A,,Clear,230,2013-05-19 17:35:00
12:55 PM,91.4,59.9,35,29.79,10.0,SW,17.3,23.0,N/A,,Clear,220,2013-05-19 17:55:00
1:15 PM,91.9,56.5,30,29.78,10.0,South,9.2,18.4,N/A,,Clear,190,2013-05-19 18:15:00
1:35 PM,92.8,56.1,29,29.77,10.0,SSW,11.5,20.7,N/A,,Clear,200,2013-05-19 18:35:00
1:55 PM,93.9,56.1,28,29.76,10.0,SW,9.2,17.3,N/A,,Clear,220,2013-05-19 18:55:00
2:15 PM,94.8,52.3,24,29.75,10.0,WSW,8.1,17.3,N/A,,Clear,240,2013-05-19 19:15:00
2:35 PM,95.2,50.7,22,29.74,10.0,SW,10.4,18.4,N/A,,Clear,230,2013-05-19 19:35:00
2:55 PM,97.3,46.9,18,29.74,10.0,SW,15.0,20.7,N/A,,Clear,220,2013-05-19 19:55:00
3:15 PM,97.2,47.3,18,29.73,10.0,SW,8.1,18.4,N/A,,Clear,230,2013-05-19 20:15:00
3:35 PM,97.7,46.2,17,29.73,10.0,SSW,9.2,20.7,N/A,,Clear,200,2013-05-19 20:35:00
3:55 PM,98.8,44.8,16,29.71,10.0,SSW,10.4,24.2,N/A,,Clear,210,2013-05-19 20:55:00
4:15 PM,99.0,44.4,15,29.70,10.0,SSW,11.5,21.9,N/A,,Clear,200,2013-05-19 21:15:00
4:35 PM,99.3,42.8,14,29.70,10.0,SW,9.2,17.3,N/A,,Clear,220,2013-05-19 21:35:00
4:55 PM,99.0,42.3,14,29.69,10.0,SW,13.8,-,N/A,,Clear,230,2013-05-19 21:55:00
5:15 PM,99.5,43.0,14,29.68,10.0,SW,10.4,20.7,N/A,,Clear,220,2013-05-19 22:15:00
5:35 PM,98.8,42.4,14,29.67,10.0,South,12.7,20.7,N/A,,Clear,180,2013-05-19 22:35:00
5:55 PM,98.8,42.4,14,29.67,10.0,SSW,13.8,17.3,N/A,,Clear,200,2013-05-19 22:55:00
6:15 PM,98.8,42.4,14,29.67,10.0,South,9.2,16.1,N/A,,Clear,190,2013-05-19 23:15:00
6:35 PM,98.6,42.8,15,29.67,10.0,SSE,9.2,-,N/A,,Clear,160,2013-05-19 23:35:00
6:55 PM,93.2,63.9,38,29.67,7.0,SSE,17.3,23.0,N/A,,Clear,160,2013-05-19 23:55:00
7:15 PM,92.1,64.4,40,29.68,10.0,SSE,16.1,23.0,N/A,,Clear,160,2013-05-20 00:15:00
7:35 PM,90.7,64.4,42,29.68,10.0,SSE,17.3,24.2,N/A,,Clear,150,2013-05-20 00:35:00
7:55 PM,89.4,64.8,44,29.69,10.0,SSE,12.7,16.1,N/A,,Clear,160,2013-05-20 00:55:00
8:15 PM,88.2,64.6,45,29.70,10.0,SSE,12.7,-,N/A,,Clear,150,2013-05-20 01:15:00
8:35 PM,86.9,64.8,48,29.70,10.0,SSE,12.7,17.3,N/A,,Clear,160,2013-05-20 01:35:00
8:55 PM,86.0,64.6,49,29.71,10.0,SSE,10.4,-,N/A,,Clear,160,2013-05-20 01:55:00
9:15 PM,85.5,64.6,49,29.72,10.0,SSE,11.5,17.3,N/A,,Clear,160,2013-05-20 02:15:00
9:35 PM,84.9,64.6,50,29.73,10.0,South,10.4,16.1,N/A,,Clear,170,2013-05-20 02:35:00
9:55 PM,84.2,64.8,52,29.74,10.0,SSE,12.7,-,N/A,,Clear,160,2013-05-20 02:55:00
10:15 PM,83.8,64.8,52,29.74,10.0,SSE,12.7,-,N/A,,Clear,160,2013-05-20 03:15:00
10:35 PM,83.3,64.9,54,29.75,10.0,South,12.7,-,N/A,,Clear,170,2013-05-20 03:35:00
10:55 PM,82.8,65.3,55,29.76,10.0,SSE,11.5,17.3,N/A,,Clear,160,2013-05-20 03:55:00
11:15 PM,82.4,65.7,57,29.77,10.0,South,11.5,-,N/A,,Clear,170,2013-05-20 04:15:00
11:35 PM,81.9,66.2,59,29.77,10.0,South,12.7,16.1,N/A,,Clear,180,2013-05-20 04:35:00
11:55 PM,80.8,66.2,61,29.77,10.0,South,9.2,-,N/A,,Clear,170,2013-05-20 04:55:00